TKJ3207 LTCE-LTFJ

Flight info

Callsign TKJ3207
Flight time 1h 34m
Altitude 38000
Route DAMAT1Y/08L DAMAT UA4 ARKIN UL615 OTSOV UA4 SIV UL615 TIMOP DCT ILHAN DCT NAMAN
Aircraft B38M/M-SDE1FGHILORVWXY/HB1

Departure

Time 2026-05-06 20:26
Airport Erzurum International Airport (LTCE)

Arrival

Time 2026-05-06 22:01
Airport Istanbul Sabiha Gökçen International Airport (LTFJ)
Time Latitude Longitude Altitude Speed Heading
2026-05-06 19:56 39.96045 41.17932 5775 ft 0 kts 359°
2026-05-06 20:10 39.96043 41.17932 5775 ft 2 kts 359°
2026-05-06 20:10 39.96017 41.17930 5775 ft 4 kts
2026-05-06 20:10 39.95991 41.17922 5776 ft 4 kts 21°
2026-05-06 20:10 39.95972 41.17910 5776 ft 1 kts 33°
2026-05-06 20:11 39.95969 41.17907 5777 ft 0 kts 33°
2026-05-06 20:19 39.95977 41.17917 5776 ft 4 kts 49°
2026-05-06 20:19 39.95988 41.17969 5776 ft 8 kts 88°
2026-05-06 20:19 39.95990 41.18067 5776 ft 13 kts 88°
2026-05-06 20:20 39.95994 41.18209 5776 ft 18 kts 87°
2026-05-06 20:20 39.95974 41.18340 5776 ft 9 kts 147°
2026-05-06 20:20 39.95939 41.18347 5778 ft 3 kts 178°
2026-05-06 20:20 39.95923 41.18348 5778 ft 1 kts 177°
2026-05-06 20:21 39.95910 41.18348 5779 ft 3 kts 177°
2026-05-06 20:21 39.95871 41.18351 5780 ft 9 kts 177°
2026-05-06 20:21 39.95795 41.18373 5781 ft 14 kts 137°
2026-05-06 20:21 39.95777 41.18493 5780 ft 17 kts 88°
2026-05-06 20:22 39.95782 41.18683 5779 ft 25 kts 88°
2026-05-06 20:22 39.95789 41.18932 5779 ft 29 kts 88°
2026-05-06 20:22 39.95794 41.19144 5778 ft 15 kts 92°
2026-05-06 20:22 39.95759 41.19238 5778 ft 9 kts 153°
2026-05-06 20:23 39.95721 41.19241 5778 ft 0 kts 181°
2026-05-06 20:23 39.95718 41.19241 5778 ft 1 kts 181°
2026-05-06 20:23 39.95709 41.19241 5778 ft 2 kts 187°
2026-05-06 20:23 39.95685 41.19232 5778 ft 5 kts 192°
2026-05-06 20:24 39.95663 41.19221 5779 ft 1 kts 174°
2026-05-06 20:24 39.95662 41.19225 5779 ft 0 kts 123°
2026-05-06 20:24 39.95663 41.19229 5779 ft 0 kts 82°
2026-05-06 20:24 39.95677 41.19245 5778 ft 5 kts 17°
2026-05-06 20:25 39.95738 41.19238 5778 ft 13 kts 350°
2026-05-06 20:25 39.95794 41.19138 5778 ft 17 kts 269°
2026-05-06 20:25 39.95787 41.18847 5779 ft 61 kts 268°
2026-05-06 20:25 39.95764 41.17978 5781 ft 129 kts 268°
2026-05-06 20:26 39.95730 41.16544 5795 ft 184 kts 268°
2026-05-06 20:26 39.95703 41.14789 6370 ft 198 kts 269°
2026-05-06 20:26 39.95627 41.13010 7484 ft 195 kts 266°
2026-05-06 20:26 39.95576 41.11239 8271 ft 198 kts 268°
2026-05-06 20:27 39.95529 41.09391 8846 ft 211 kts 267°
2026-05-06 20:27 39.95475 41.07391 9305 ft 232 kts 267°
2026-05-06 20:27 39.95414 41.05191 9768 ft 254 kts 267°
2026-05-06 20:27 39.95151 41.02827 10232 ft 274 kts 248°
2026-05-06 20:28 39.94064 41.00725 10729 ft 292 kts 223°
2026-05-06 20:28 39.92381 40.99114 11237 ft 308 kts 215°
2026-05-06 20:28 39.90589 40.97471 11858 ft 320 kts 216°
2026-05-06 20:28 39.88764 40.95801 12781 ft 321 kts 215°
2026-05-06 20:29 39.86968 40.94043 13629 ft 326 kts 224°
2026-05-06 20:29 39.85677 40.91624 14442 ft 329 kts 247°
2026-05-06 20:29 39.85199 40.88706 15194 ft 335 kts 269°
2026-05-06 20:29 39.85588 40.85706 15950 ft 341 kts 289°
2026-05-06 20:30 39.86757 40.83003 16725 ft 346 kts 304°
2026-05-06 20:30 39.89533 40.77774 18172 ft 355 kts 303°
2026-05-06 20:30 39.90954 40.75122 18833 ft 359 kts 303°
2026-05-06 20:31 39.92399 40.72436 19444 ft 363 kts 303°
2026-05-06 20:31 39.93852 40.69737 20070 ft 366 kts 303°
2026-05-06 20:31 39.95053 40.66812 20668 ft 366 kts 285°
2026-05-06 20:31 39.95460 40.63552 21255 ft 366 kts 269°
2026-05-06 20:32 39.95510 40.60264 21809 ft 371 kts 269°
2026-05-06 20:32 39.95537 40.56878 22416 ft 374 kts 268°
2026-05-06 20:32 39.95546 40.53473 23006 ft 378 kts 268°
2026-05-06 20:32 39.95542 40.50039 23593 ft 381 kts 268°
2026-05-06 20:33 39.95530 40.46571 24090 ft 384 kts 268°
2026-05-06 20:33 39.95514 40.43078 24602 ft 386 kts 268°
2026-05-06 20:33 39.95496 40.39565 25127 ft 388 kts 268°
2026-05-06 20:33 39.95477 40.36045 25616 ft 390 kts 267°
2026-05-06 20:34 39.95456 40.32499 26099 ft 392 kts 267°
2026-05-06 20:34 39.95434 40.28935 26601 ft 394 kts 267°
2026-05-06 20:34 39.95411 40.25371 27086 ft 396 kts 267°
2026-05-06 20:34 39.95387 40.21768 27552 ft 398 kts 267°
2026-05-06 20:35 39.95370 40.19374 27858 ft 399 kts 267°
2026-05-06 20:35 39.95343 40.15749 28304 ft 401 kts 267°
2026-05-06 20:35 39.95315 40.12098 28749 ft 404 kts 267°
2026-05-06 20:35 39.95287 40.08425 29177 ft 406 kts 267°
2026-05-06 20:36 39.95256 40.04740 29599 ft 408 kts 267°
2026-05-06 20:36 39.95224 40.01038 30012 ft 410 kts 267°
2026-05-06 20:36 39.95192 39.97310 30369 ft 412 kts 267°
2026-05-06 20:36 39.95158 39.93567 30693 ft 415 kts 267°
2026-05-06 20:37 39.95120 39.89795 30988 ft 417 kts 267°
2026-05-06 20:37 39.95081 39.86017 31287 ft 419 kts 267°
2026-05-06 20:37 39.95040 39.82201 31595 ft 421 kts 267°
2026-05-06 20:37 39.94998 39.78370 31882 ft 424 kts 267°
2026-05-06 20:38 39.94956 39.74654 32180 ft 426 kts 267°
2026-05-06 20:38 39.94911 39.70785 32494 ft 427 kts 268°
2026-05-06 20:38 39.94865 39.66911 32797 ft 429 kts 268°
2026-05-06 20:38 39.94817 39.63005 33069 ft 432 kts 268°
2026-05-06 20:39 39.94767 39.59078 33378 ft 434 kts 268°
2026-05-06 20:39 39.94718 39.55157 33760 ft 433 kts 268°
2026-05-06 20:39 39.94667 39.51251 34177 ft 432 kts 268°
2026-05-06 20:39 39.94615 39.47328 34486 ft 432 kts 268°
2026-05-06 20:40 39.94562 39.43414 34784 ft 432 kts 268°
2026-05-06 20:40 39.94507 39.39499 35063 ft 432 kts 268°
2026-05-06 20:40 39.94451 39.35584 35357 ft 432 kts 268°
2026-05-06 20:40 39.94393 39.31663 35647 ft 432 kts 268°
2026-05-06 20:41 39.94335 39.27755 35923 ft 433 kts 268°
2026-05-06 20:41 39.94275 39.23832 36197 ft 433 kts 268°
2026-05-06 20:41 39.94214 39.19910 36470 ft 433 kts 268°
2026-05-06 20:41 39.94151 39.15993 36728 ft 433 kts 268°
2026-05-06 20:42 39.94088 39.12071 36982 ft 433 kts 268°
2026-05-06 20:42 39.94028 39.08154 37238 ft 433 kts 268°
2026-05-06 20:42 39.93968 39.04223 37486 ft 434 kts 268°
2026-05-06 20:42 39.93906 39.00294 37714 ft 434 kts 268°
2026-05-06 20:43 39.93844 38.96361 37956 ft 434 kts 268°
2026-05-06 20:43 39.93779 38.92429 38134 ft 434 kts 268°
2026-05-06 20:43 39.93665 38.88501 38153 ft 433 kts 263°
2026-05-06 20:44 39.93108 38.80712 38148 ft 432 kts 264°
2026-05-06 20:44 39.92623 38.73434 38145 ft 432 kts 264°
2026-05-06 20:45 39.92105 38.65629 38150 ft 432 kts 264°
2026-05-06 20:45 39.91582 38.57820 38144 ft 432 kts 264°
2026-05-06 20:46 39.91055 38.50020 38140 ft 432 kts 264°
2026-05-06 20:46 39.90526 38.42276 38160 ft 432 kts 264°
2026-05-06 20:47 39.89988 38.34475 38146 ft 432 kts 264°
2026-05-06 20:47 39.89442 38.26631 38153 ft 432 kts 264°
2026-05-06 20:48 39.88898 38.18895 38143 ft 432 kts 264°
2026-05-06 20:48 39.88345 38.11109 38142 ft 432 kts 264°
2026-05-06 20:49 39.87787 38.03319 38151 ft 432 kts 264°
2026-05-06 20:49 39.87223 37.95533 38145 ft 432 kts 264°
2026-05-06 20:50 39.86653 37.87747 38144 ft 432 kts 264°
2026-05-06 20:50 39.86078 37.79961 38157 ft 432 kts 264°
2026-05-06 20:51 39.85497 37.72172 38149 ft 432 kts 264°
2026-05-06 20:51 39.84912 37.64389 38159 ft 432 kts 264°
2026-05-06 20:52 39.84321 37.56606 38152 ft 432 kts 264°
2026-05-06 20:52 39.83726 37.48833 38147 ft 432 kts 264°
2026-05-06 20:53 39.83122 37.41053 38148 ft 432 kts 264°
2026-05-06 20:53 39.82509 37.33280 38164 ft 432 kts 264°
2026-05-06 20:54 39.81891 37.25517 38169 ft 432 kts 264°
2026-05-06 20:54 39.81268 37.17747 38176 ft 432 kts 264°
2026-05-06 20:55 39.80640 37.09986 38183 ft 432 kts 264°
2026-05-06 20:55 39.80007 37.02224 38181 ft 432 kts 264°
2026-05-06 20:56 39.79368 36.94456 38182 ft 432 kts 264°
2026-05-06 20:56 39.79390 36.86714 38196 ft 430 kts 280°
2026-05-06 20:57 39.80378 36.79024 38195 ft 432 kts 279°
2026-05-06 20:57 39.81404 36.71318 38187 ft 432 kts 279°
2026-05-06 20:58 39.82442 36.63614 38174 ft 432 kts 279°
2026-05-06 20:58 39.83478 36.55911 38177 ft 433 kts 279°
2026-05-06 20:59 39.84510 36.48193 38171 ft 433 kts 279°
2026-05-06 20:59 39.85538 36.40469 38172 ft 433 kts 279°
2026-05-06 21:00 39.86619 36.32748 38165 ft 434 kts 280°
2026-05-06 21:00 39.87688 36.25077 38162 ft 434 kts 279°
2026-05-06 21:01 39.88720 36.17333 38162 ft 434 kts 279°
2026-05-06 21:01 39.89749 36.09586 38164 ft 434 kts 279°
2026-05-06 21:02 39.90773 36.01840 38173 ft 434 kts 279°
2026-05-06 21:02 39.91792 35.94093 38158 ft 434 kts 279°
2026-05-06 21:03 39.92799 35.86338 38155 ft 434 kts 279°
2026-05-06 21:03 39.93800 35.78594 38149 ft 434 kts 279°
2026-05-06 21:04 39.94797 35.70838 38139 ft 434 kts 279°
2026-05-06 21:04 39.95788 35.63091 38133 ft 434 kts 279°
2026-05-06 21:05 39.96774 35.55333 38131 ft 434 kts 279°
2026-05-06 21:05 39.97755 35.47575 38123 ft 434 kts 279°
2026-05-06 21:06 39.98732 35.39812 38126 ft 434 kts 279°
2026-05-06 21:06 40.00300 35.32264 38129 ft 433 kts 290°
2026-05-06 21:07 40.02355 35.24878 38122 ft 433 kts 290°
2026-05-06 21:07 40.04414 35.17515 38123 ft 433 kts 290°
2026-05-06 21:08 40.06478 35.10119 38126 ft 433 kts 290°
2026-05-06 21:08 40.08537 35.02726 38126 ft 433 kts 290°
2026-05-06 21:09 40.10589 34.95335 38116 ft 433 kts 290°
2026-05-06 21:09 40.12635 34.87942 38122 ft 433 kts 290°
2026-05-06 21:10 40.14678 34.80540 38119 ft 433 kts 290°
2026-05-06 21:10 40.16647 34.73386 38119 ft 433 kts 290°
2026-05-06 21:11 40.18679 34.65980 38117 ft 432 kts 290°
2026-05-06 21:11 40.20705 34.58576 38112 ft 432 kts 290°
2026-05-06 21:12 40.22711 34.51225 38111 ft 432 kts 290°
2026-05-06 21:12 40.24723 34.43829 38110 ft 431 kts 290°
2026-05-06 21:13 40.26730 34.36429 38105 ft 431 kts 290°
2026-05-06 21:13 40.28730 34.29032 38104 ft 431 kts 290°
2026-05-06 21:14 40.30727 34.21628 38104 ft 431 kts 290°
2026-05-06 21:14 40.32716 34.14228 38103 ft 431 kts 290°
2026-05-06 21:15 40.34702 34.06821 38101 ft 430 kts 290°
2026-05-06 21:15 40.36678 33.99425 38105 ft 430 kts 290°
2026-05-06 21:16 40.38652 33.92018 38103 ft 430 kts 290°
2026-05-06 21:16 40.40621 33.84609 38106 ft 430 kts 290°
2026-05-06 21:17 40.41912 33.79742 38107 ft 430 kts 290°
2026-05-06 21:17 40.43641 33.73211 38105 ft 430 kts 290°
2026-05-06 21:18 40.45340 33.65686 38115 ft 430 kts 287°
2026-05-06 21:18 40.46964 33.58175 38117 ft 430 kts 287°
2026-05-06 21:19 40.48606 33.50620 38119 ft 430 kts 287°
2026-05-06 21:19 40.50243 33.43063 38123 ft 430 kts 287°
2026-05-06 21:20 40.51717 33.36235 38123 ft 430 kts 287°
2026-05-06 21:20 40.53346 33.28669 38128 ft 430 kts 287°
2026-05-06 21:21 40.54967 33.21111 38137 ft 430 kts 287°
2026-05-06 21:21 40.56584 33.13542 38132 ft 430 kts 287°
2026-05-06 21:22 40.57923 33.07255 38135 ft 430 kts 287°
2026-05-06 21:22 40.59541 32.99637 38135 ft 430 kts 287°
2026-05-06 21:23 40.61131 32.92118 38139 ft 429 kts 287°
2026-05-06 21:23 40.62727 32.84546 38149 ft 429 kts 287°
2026-05-06 21:24 40.64319 32.76972 38136 ft 429 kts 288°
2026-05-06 21:24 40.65902 32.69407 38147 ft 429 kts 287°
2026-05-06 21:25 40.67481 32.61838 38142 ft 428 kts 288°
2026-05-06 21:25 40.69053 32.54270 38150 ft 428 kts 288°
2026-05-06 21:26 40.70620 32.46702 38144 ft 428 kts 288°
2026-05-06 21:26 40.72181 32.39139 38146 ft 428 kts 287°
2026-05-06 21:27 40.73737 32.31569 38149 ft 427 kts 288°
2026-05-06 21:27 40.75286 32.24003 38146 ft 427 kts 288°
2026-05-06 21:28 40.76829 32.16443 38146 ft 427 kts 288°
2026-05-06 21:28 40.78366 32.08883 38147 ft 427 kts 288°
2026-05-06 21:29 40.79898 32.01318 38143 ft 426 kts 288°
2026-05-06 21:29 40.81423 31.93760 38144 ft 426 kts 288°
2026-05-06 21:30 40.82945 31.86191 38148 ft 426 kts 288°
2026-05-06 21:30 40.84297 31.78623 38127 ft 429 kts 277°
2026-05-06 21:30 40.84185 31.74623 38152 ft 435 kts 264°
2026-05-06 21:31 40.83614 31.70731 38142 ft 438 kts 263°
2026-05-06 21:31 40.82493 31.62828 38131 ft 438 kts 263°
2026-05-06 21:32 40.81387 31.54921 38129 ft 438 kts 263°
2026-05-06 21:32 40.79719 31.43053 38130 ft 438 kts 263°
2026-05-06 21:33 40.78600 31.35145 38125 ft 439 kts 263°
2026-05-06 21:33 40.77478 31.27246 38128 ft 439 kts 263°
2026-05-06 21:34 40.76343 31.19305 38124 ft 439 kts 263°
2026-05-06 21:34 40.75207 31.11392 38122 ft 439 kts 263°
2026-05-06 21:35 40.74064 31.03473 38115 ft 440 kts 263°
2026-05-06 21:35 40.72916 30.95560 38075 ft 440 kts 263°
2026-05-06 21:36 40.72339 30.91600 37819 ft 439 kts 263°
2026-05-06 21:36 40.71763 30.87657 37555 ft 438 kts 263°
2026-05-06 21:36 40.71187 30.83716 37283 ft 438 kts 263°
2026-05-06 21:36 40.70608 30.79772 37030 ft 438 kts 263°
2026-05-06 21:37 40.70031 30.75845 36778 ft 438 kts 263°
2026-05-06 21:37 40.69451 30.71918 36533 ft 430 kts 263°
2026-05-06 21:37 40.68884 30.68093 36295 ft 421 kts 263°
2026-05-06 21:37 40.68329 30.64358 36062 ft 412 kts 263°
2026-05-06 21:38 40.67779 30.60655 35830 ft 411 kts 263°
2026-05-06 21:38 40.67231 30.56973 35585 ft 409 kts 263°
2026-05-06 21:38 40.66692 30.53361 35347 ft 407 kts 263°
2026-05-06 21:38 40.66148 30.49722 35113 ft 404 kts 263°
2026-05-06 21:39 40.65605 30.46099 34873 ft 400 kts 263°
2026-05-06 21:39 40.65068 30.42521 34408 ft 399 kts 264°
2026-05-06 21:39 40.64531 30.38949 33722 ft 395 kts 264°
2026-05-06 21:39 40.63997 30.35414 33181 ft 392 kts 264°
2026-05-06 21:40 40.63466 30.31905 32731 ft 389 kts 264°
2026-05-06 21:40 40.62939 30.28429 32283 ft 386 kts 264°
2026-05-06 21:40 40.62415 30.24974 31828 ft 383 kts 264°
2026-05-06 21:40 40.61893 30.21546 31368 ft 381 kts 264°
2026-05-06 21:41 40.61372 30.18134 30902 ft 379 kts 264°
2026-05-06 21:41 40.60854 30.14739 30444 ft 377 kts 263°
2026-05-06 21:41 40.60337 30.11362 29939 ft 375 kts 263°
2026-05-06 21:41 40.59821 30.08004 29448 ft 373 kts 263°
2026-05-06 21:42 40.59310 30.04677 28994 ft 370 kts 263°
2026-05-06 21:42 40.58801 30.01374 28553 ft 367 kts 263°
2026-05-06 21:42 40.58295 29.98098 28117 ft 364 kts 263°
2026-05-06 21:42 40.57794 29.94858 27676 ft 361 kts 263°
2026-05-06 21:43 40.57293 29.91627 27235 ft 359 kts 263°
2026-05-06 21:43 40.56803 29.88465 26809 ft 356 kts 263°
2026-05-06 21:43 40.56301 29.85239 26381 ft 354 kts 263°
2026-05-06 21:43 40.55808 29.82077 25958 ft 352 kts 263°
2026-05-06 21:44 40.55317 29.78934 25541 ft 350 kts 263°
2026-05-06 21:44 40.54829 29.75808 25122 ft 348 kts 262°
2026-05-06 21:44 40.54340 29.72692 24707 ft 347 kts 262°
2026-05-06 21:44 40.53854 29.69594 24289 ft 346 kts 262°
2026-05-06 21:45 40.53367 29.66499 23880 ft 345 kts 262°
2026-05-06 21:45 40.52881 29.63413 23419 ft 344 kts 262°
2026-05-06 21:45 40.52396 29.60340 22958 ft 342 kts 262°
2026-05-06 21:45 40.51914 29.57295 22549 ft 339 kts 262°
2026-05-06 21:46 40.51442 29.54312 22140 ft 336 kts 262°
2026-05-06 21:46 40.50966 29.51312 21747 ft 334 kts 262°
2026-05-06 21:46 40.50494 29.48343 21346 ft 331 kts 262°
2026-05-06 21:46 40.50020 29.45368 20694 ft 336 kts 262°
2026-05-06 21:47 40.49542 29.42366 19988 ft 335 kts 262°
2026-05-06 21:47 40.49063 29.39372 19294 ft 333 kts 262°
2026-05-06 21:47 40.48588 29.36404 18634 ft 332 kts 262°
2026-05-06 21:47 40.48114 29.33449 17900 ft 330 kts 262°
2026-05-06 21:48 40.47642 29.30510 17160 ft 327 kts 262°
2026-05-06 21:48 40.47173 29.27597 16440 ft 325 kts 262°
2026-05-06 21:48 40.46707 29.24708 15734 ft 323 kts 262°
2026-05-06 21:48 40.46242 29.21831 15052 ft 320 kts 262°
2026-05-06 21:49 40.45781 29.18983 14390 ft 317 kts 262°
2026-05-06 21:49 40.45325 29.16168 13720 ft 314 kts 261°
2026-05-06 21:49 40.44871 29.13371 13007 ft 311 kts 261°
2026-05-06 21:49 40.44547 29.10597 12322 ft 306 kts 268°
2026-05-06 21:50 40.44336 29.07829 11651 ft 303 kts 267°
2026-05-06 21:50 40.44230 29.05103 10976 ft 296 kts 280°
2026-05-06 21:50 40.44889 29.02623 10354 ft 285 kts 306°
2026-05-06 21:50 40.46276 29.00841 9742 ft 277 kts 330°
2026-05-06 21:51 40.48052 28.99986 9198 ft 269 kts 352°
2026-05-06 21:51 40.49871 28.99904 8856 ft 256 kts 359°
2026-05-06 21:51 40.51618 28.99932 8527 ft 249 kts 359°
2026-05-06 21:51 40.53368 28.99992 8126 ft 254 kts 360°
2026-05-06 21:52 40.55147 29.00078 7747 ft 257 kts
2026-05-06 21:52 40.56782 29.00169 7435 ft 257 kts
2026-05-06 21:52 40.58475 29.00269 7115 ft 255 kts
2026-05-06 21:52 40.60245 29.00380 6784 ft 255 kts
2026-05-06 21:53 40.61987 29.00491 6438 ft 253 kts 360°
2026-05-06 21:53 40.63738 29.00604 6105 ft 251 kts 360°
2026-05-06 21:53 40.65477 29.00718 5768 ft 249 kts 360°
2026-05-06 21:53 40.67202 29.00833 5438 ft 248 kts 360°
2026-05-06 21:54 40.68918 29.00946 5124 ft 246 kts 360°
2026-05-06 21:54 40.70608 29.01059 4937 ft 239 kts 359°
2026-05-06 21:54 40.72156 29.01162 4810 ft 230 kts 359°
2026-05-06 21:54 40.73459 29.01249 4681 ft 223 kts 359°
2026-05-06 21:55 40.74920 29.01347 4558 ft 215 kts 359°
2026-05-06 21:55 40.76380 29.01600 4342 ft 215 kts 18°
2026-05-06 21:55 40.77629 29.02739 4041 ft 225 kts 45°
2026-05-06 21:55 40.78659 29.04374 3761 ft 230 kts 49°
2026-05-06 21:56 40.79652 29.05998 3459 ft 230 kts 49°
2026-05-06 21:56 40.80637 29.07630 3200 ft 221 kts 50°
2026-05-06 21:56 40.81567 29.09148 3163 ft 200 kts 52°
2026-05-06 21:56 40.82298 29.10634 3074 ft 192 kts 58°
2026-05-06 21:57 40.82905 29.12117 3023 ft 172 kts 61°
2026-05-06 21:57 40.83398 29.13422 3024 ft 151 kts 62°
2026-05-06 21:57 40.83868 29.14684 3046 ft 157 kts 62°
2026-05-06 21:57 40.84352 29.15993 3035 ft 159 kts 62°
2026-05-06 21:58 40.84837 29.17308 3012 ft 160 kts 62°
2026-05-06 21:58 40.85329 29.18628 2885 ft 161 kts 62°
2026-05-06 21:58 40.85832 29.19940 2459 ft 160 kts 62°
2026-05-06 21:58 40.86317 29.21244 2036 ft 157 kts 64°
2026-05-06 21:59 40.86778 29.22534 1637 ft 153 kts 65°
2026-05-06 21:59 40.87216 29.23783 1331 ft 149 kts 64°
2026-05-06 21:59 40.87669 29.25005 1109 ft 147 kts 62°
2026-05-06 21:59 40.88116 29.26202 875 ft 144 kts 63°
2026-05-06 22:00 40.88558 29.27380 659 ft 141 kts 63°
2026-05-06 22:00 40.88970 29.28530 489 ft 139 kts 62°
2026-05-06 22:00 40.89394 29.29681 334 ft 136 kts 62°
2026-05-06 22:00 40.89727 29.30575 323 ft 72 kts 64°
2026-05-06 22:01 40.89873 29.30965 323 ft 37 kts 63°
2026-05-06 22:01 40.90020 29.31241 321 ft 26 kts 39°
2026-05-06 22:01 40.90161 29.31373 322 ft 21 kts 34°
2026-05-06 22:01 40.90273 29.31483 323 ft 19 kts 31°
2026-05-06 22:02 40.90375 29.31460 322 ft 14 kts 336°
2026-05-06 22:02 40.90433 29.31435 321 ft 5 kts 11°
2026-05-06 22:02 40.90460 29.31470 323 ft 7 kts 59°
2026-05-06 22:02 40.90486 29.31534 322 ft 8 kts 62°
2026-05-06 22:03 40.90507 29.31590 321 ft 6 kts 63°
2026-05-06 22:03 40.90518 29.31618 322 ft 3 kts 60°
2026-05-06 22:03 40.90526 29.31626 323 ft 1 kts 24°
2026-05-06 22:03 40.90529 29.31626 323 ft 0 kts 353°
2026-05-06 22:04 40.90535 29.31621 323 ft 2 kts 332°
2026-05-06 22:04 40.90565 29.31601 322 ft 7 kts 334°
2026-05-06 22:04 40.90601 29.31578 323 ft 3 kts 334°
2026-05-06 22:04 40.90608 29.31574 323 ft 0 kts 334°